Regional Weather Roundup
Issued by NWS Newport/Morehead, NC

Current Version | Previous Version | Graphics & Text | Print | Product List | Glossary Off
Versions: 1 2 3 4 5 6 7 8 9 10 11 12 13 14 15 16 17 18 19 20 21 22 23 24 25 26 27 28 29 30 31 32 33 34 35 36 37 38 39 40 41 42 43 44 45 46 47 48 49 50

000
ASUS42 KMHX 271122
RWRMHX
WEATHER ROUNDUP FOR EASTERN NORTH CAROLINA
NATIONAL WEATHER SERVICE NEWPORT/MOREHEAD CITY NC
600 AM EST TUE JAN 27 2015

NOTE: "FAIR" INDICATES FEW OR NO CLOUDS BELOW 12,000 FEET
WITH NO SIGNIFICANT WEATHER AND/OR OBSTRUCTIONS TO VISIBILITY

NCZ015>017-031-032-045>047-102-103-271200-
NORTH COAST

CITY           SKY/WX    TMP DP  RH WIND       PRES   REMARKS
EDENTON        CLOUDY    32  29  87 N10       29.71R
ELIZABETH CITY LGT SNOW  32  28  86 NW14      29.70R FOG
KITTY HAWK     LGT SNOW  33  32  97 NW9G18    29.66R
MANTEO         CLOUDY    34  30  86 N16G25    29.67R

$$

NCZ045>047-081-094-103-104-271200-
CENTRAL COAST

CITY           SKY/WX    TMP DP  RH WIND       PRES   REMARKS
FRISCO         CLOUDY    36  33  89 N12G24    29.66R
SWANQUARTER    NOT AVBL

$$

NCZ095-097-098-100-101-271200-
SOUTHERN COAST

CITY           SKY/WX    TMP DP  RH WIND       PRES   REMARKS
BEAUFORT       CLOUDY    40  35  83 N16       29.69R
CEDAR ISLAND   NOT AVBL
JACKSONVILLE   CLOUDY    39  30  70 N20       29.71R
PINEY ISLAND     N/A    N/A N/A N/A MISG      29.68R
WILMINGTON     CLOUDY    40  37  89 NW14      29.73R


$$

NCZ011>013-027>030-043-044-078>080-089-090>093-098-271200-
COASTAL PLAIN

CITY           SKY/WX    TMP DP  RH WIND       PRES   REMARKS
AHOSKIE        CLOUDY    32  24  73 N10G16    29.73R
CLINTON        DRIZZLE   37  36  96 NW5       29.75R
ELIZABETHTOWN  CLOUDY    39  29  67 NW6       29.75S
GOLDSBORO      MOCLDY    36  36 100 N5        29.74R
GREENVILLE     CLOUDY    34  28  80 N10G17    29.77R
HAVELOCK       CLOUDY    40  32  73 NW15      29.70R
KENANSVILLE    CLOUDY    37  34  92 N8        29.75R
KINSTON        NOT AVBL
NEW BERN       CLOUDY    40  31  70 NW14      29.71R
RICHLANDS      CLOUDY    37  30  75 N8        29.73R
ROCKY MOUNT    FLURRIES  33  31  92 N5        29.76R
WASHINGTON     CLOUDY    35  30  82 NW10G17   29.72R
WHITEVILLE     CLOUDY    40  28  61 W5        29.75R

$$

AMZ130-135-150-152-154-156-158-170-250-252-270-ANZ085-086-088-633-658-670-271200-
MARINE OBSERVATIONS

STATION/POSITION TIME  TEMP    WIND        PRES    WAVE   SWELL
                       AIR SEA DIR/SP/G            HT/PER HT/PER
                 (UTC) (F)     (DEG/KT/KT) (MB)    (FT/S) (FT/S)
CHESAPEAKE LIGHT 1100   32     340/ 23/ 25 1004.9
64 E VA BEACH    1100   38 51  340/ 25/ 29 1001.6   12/11   8/11
DUCK             1100   34 44  330/ 20/ 25 1003.7
2 E DUCK         1100      44                N/A    10/11   5/11
10 NE DUCK       1100      45                N/A    11/11   7/11
OREGON INLET     1100   33 46  330/ 13/ 18 1004.3
13E OREGON INLT  1100      46                N/A    11/11   5/11
HATTERAS CG      1100   38 49  340/ 22/ 25 1004.4
DIAMOND BUOY     1100   42 68  330/ 23/ 31 1002.8    8/ 6   3/10
17 S OCRACOKE    NOT AVBL
CAPE LOOKOUT     1100   41     340/ 15/ 18 1004.8
BEAUFORT LAB     1100   40 50  350/ 14/ 18 1004.3
27 SE WRIGHTSVLE NOT AVBL
5 SE WRIGHTSVLE  1100   43 53  300/ 17/ 19 1006.0
225 S CAPE HAT   1008   61 72  290/ 25/ 31 1001.8   14/10
41 SE CHARLESTON 1100   46 68  310/ 23/ 31 1008.3    8/ 6

$$


USA.gov is the U.S. government's official web portal to all federal, state and local government web resources and services.